Probability
0 0 0 0 0 0 0 0 0 0 0 0 0 0 0 0 0 0 0 2 5 8 7 8 10 10 8 7 6 5 5 5 4 2 1 1 0 0 0 0 0 0 0 0 0 0 0 0 0
0 0 0 0 0 0 0 0 0 0 0 0 0 0 0 0 0 0 0 1 4 6 6 8 10 11 10 8 6 5 4 4 4 3 3 2 1 0 0 0 0 0 0 0 0 0 0 0 0
0 0 0 0 0 0 0 0 0 0 0 0 0 0 0 0 0 0 0 1 3 5 6 9 11 12 10 8 6 5 4 4 5 5 4 3 1 1 1 0 0 0 0 0 0 0 0 0 0
0 0 0 0 0 0 0 0 0 0 0 0 0 0 0 0 0 0 0 1 3 6 8 10 12 13 10 8 6 4 4 4 4 5 5 3 2 2 2 1 0 0 0 0 0 0 0 0 0
0 0 0 0 0 0 0 0 0 0 0 0 0 0 0 0 0 0 0 1 2 5 7 9 11 12 10 8 6 4 4 4 4 4 4 3 3 3 2 1 0 0 0 0 0 0 0 0 0
0 0 0 0 0 0 0 0 0 0 0 0 0 0 0 0 0 0 1 1 2 4 6 6 8 9 8 7 5 4 4 4 4 3 3 3 3 3 2 1 0 0 0 0 0 0 0 0 0
0 0 0 0 0 0 0 0 0 0 0 0 0 0 0 1 1 0 1 2 3 4 5 5 4 4 4 4 3 3 4 4 3 3 3 3 3 3 2 1 0 0 0 0 0 0 0 0 0
0 0 0 0 0 0 0 0 0 0 0 0 0 0 1 2 2 1 1 1 2 4 5 4 3 2 1 1 1 3 3 3 3 3 3 3 3 2 2 1 0 0 0 0 0 0 0 0 0
0 0 0 0 0 0 0 0 0 0 0 0 0 0 1 2 2 2 2 1 3 4 6 6 4 3 1 0 1 2 3 3 3 3 3 2 1 1 1 0 0 0 0 0 0 0 0 0 0
0 0 0 0 0 0 0 0 0 0 0 0 0 0 0 1 2 2 2 2 3 4 6 7 7 5 4 2 1 3 3 3 3 2 1 1 0 0 0 0 0 0 0 0 0 0 0 0 0
0 0 0 0 0 0 0 0 0 0 0 0 0 0 0 0 2 2 1 1 1 3 6 8 9 8 6 4 3 3 3 3 1 1 0 0 0 0 0 0 0 0 0 0 0 0 0 0 0
0 0 0 0 0 0 0 0 0 0 0 0 0 0 0 0 1 2 2 1 1 2 5 8 10 11 9 6 4 4 3 3 1 0 0 0 0 0 0 0 0 0 0 0 0 0 0 0 0
0 0 0 0 0 0 0 0 0 0 0 0 0 0 0 0 0 1 2 2 2 3 4 7 9 11 10 8 6 5 4 3 2 1 0 0 0 0 1 1 1 0 0 0 0 0 0 0 0
0 0 0 0 0 0 0 0 0 0 0 0 0 0 0 0 0 0 1 2 3 3 4 5 7 9 10 10 8 6 4 3 3 2 1 0 0 0 1 2 1 0 0 0 0 0 0 0 0
0 0 0 0 0 0 0 0 0 0 0 0 0 0 0 0 0 0 0 1 1 2 3 4 6 7 8 11 10 8 5 3 3 3 1 0 0 0 1 1 1 0 0 0 0 0 0 0 0
0 0 0 0 0 0 0 0 0 0 0 0 0 0 0 0 0 0 0 0 0 1 1 3 5 5 6 9 11 8 4 3 3 3 2 1 0 0 0 0 0 0 0 0 0 0 0 0 0
0 0 0 0 0 0 0 0 0 0 0 0 0 0 0 0 0 0 0 0 0 0 0 1 3 4 5 8 10 8 3 1 2 3 3 2 1 1 0 0 0 0 0 0 0 0 0 0 0
0 0 0 0 0 0 0 0 0 0 0 0 0 0 0 0 0 0 0 0 0 0 0 0 1 3 4 8 9 7 3 1 1 2 3 3 3 2 1 1 0 0 0 0 0 0 0 0 0
0 0 0 0 0 0 0 0 0 0 0 0 0 0 0 0 0 0 0 0 0 0 0 0 1 2 4 7 8 6 4 2 1 1 2 3 3 3 3 2 1 0 0 0 0 0 0 0 0
0 0 0 0 0 0 0 0 0 0 0 0 0 0 0 0 0 0 0 0 0 0 0 0 0 1 3 6 7 6 4 2 1 0 1 1 2 3 3 3 1 0 0 0 0 0 0 0 0
0 0 0 0 0 0 0 0 0 0 0 0 0 0 0 0 0 0 0 0 0 0 0 0 0 0 1 3 5 5 4 3 2 1 0 0 1 3 3 3 2 0 0 0 0 0 0 0 0
0 0 0 0 0 0 0 0 0 0 0 0 0 0 0 0 0 0 0 0 0 0 0 0 0 0 0 2 3 3 3 3 3 3 2 1 1 3 4 3 1 0 0 0 0 0 0 0 0
0 0 0 0 0 0 0 0 0 0 0 0 0 0 0 0 0 0 0 0 0 0 0 0 0 0 0 1 1 1 1 2 3 3 3 2 3 3 4 2 1 0 0 0 0 0 0 0 0
0 0 0 0 0 0 0 0 0 0 0 0 0 0 0 0 0 0 0 0 0 0 0 0 0 0 0 0 0 0 0 1 3 3 3 3 3 3 3 1 0 0 0 0 0 0 0 0 0
0 0 0 0 0 0 0 0 0 0 0 0 0 0 0 0 0 0 0 0 0 0 0 0 0 0 0 0 0 0 1 2 3 3 3 3 3 2 1 0 0 0 0 0 0 0 0 0 0
0 0 0 0 0 0 0 0 0 0 0 0 0 0 0 0 0 0 0 0 0 0 0 0 0 0 0 0 0 1 4 4 4 3 3 3 2 1 0 0 0 0 0 0 0 0 0 0 0
0 0 0 0 0 0 0 0 0 0 0 0 0 0 0 0 0 0 0 0 0 0 0 0 0 0 1 1 2 3 5 6 4 3 3 2 1 0 0 0 1 0 0 0 0 0 0 0 0
0 0 0 0 0 0 0 0 0 0 0 0 0 0 0 0 0 0 0 0 0 0 0 0 0 1 2 3 3 4 6 6 5 3 1 1 0 0 0 0 0 0 0 0 0 0 0 0 0
0 0 0 0 0 0 0 0 0 0 0 0 0 0 0 0 0 0 0 0 0 0 0 0 1 2 3 4 5 5 5 5 3 2 0 0 0 0 0 0 0 0 0 0 0 0 0 0 0
0 0 0 0 0 0 0 0 0 0 0 0 0 0 0 0 0 0 0 0 0 0 0 0 1 2 3 4 5 5 4 4 2 1 1 0 0 0 0 0 0 0 0 0 0 0 0 0 0
Wind_Speed
9 10 8 3 3 5 8 7 4 2 2 4 5 4 5 6 5 8 4 7 10 12 13 11 11 11 11 11 10 10 10 9 9 9 9 9 8 8 8 8 8 8 8 8 8 7 8 8 7
9 9 5 3 4 6 7 8 5 2 5 5 3 2 2 5 7 8 5 7 10 12 12 11 11 11 11 11 11 10 10 9 9 9 8 8 8 7 7 7 7 8 8 7 7 7 7 7 7
11 9 4 4 6 7 4 2 4 5 6 2 1 1 2 5 7 6 6 7 10 11 11 12 12 11 11 11 10 10 9 9 9 8 8 8 7 7 7 7 7 7 7 7 6 6 6 6 6
5 4 4 6 11 8 5 2 5 5 4 3 2 3 4 5 4 7 7 8 10 11 11 11 12 11 11 10 10 9 9 8 8 8 7 7 7 7 6 6 6 6 6 6 5 5 5 5 5
4 4 6 8 12 8 4 2 3 3 4 5 3 3 5 5 8 9 6 7 9 10 11 11 12 11 11 10 9 9 8 8 7 7 6 6 6 6 6 5 5 5 5 5 5 5 4 4 3
4 4 7 10 11 8 5 2 2 4 4 4 4 3 5 6 7 6 5 6 8 10 11 11 12 11 10 10 9 8 7 7 6 6 6 5 6 6 5 5 4 4 4 4 4 4 3 3 2
5 5 9 10 8 6 5 4 4 4 4 4 3 2 6 7 6 6 5 6 8 9 10 9 8 8 9 9 9 8 7 7 6 5 5 5 5 5 5 5 4 4 4 3 3 3 3 2 1
4 4 8 10 9 5 3 3 1 2 2 1 1 2 6 8 6 6 6 6 6 7 8 9 8 7 7 6 8 8 7 6 5 5 4 4 4 4 4 3 3 4 3 3 2 2 1 1 1
4 5 7 8 6 2 4 3 2 1 1 1 2 3 6 10 7 5 5 5 5 5 5 7 7 7 6 6 8 7 7 6 5 4 4 4 2 3 3 3 3 3 3 2 1 1 1 1 2
5 6 8 4 4 2 2 2 2 3 4 3 3 5 7 7 7 6 5 6 6 6 6 6 6 6 6 5 6 4 4 4 4 3 4 2 2 2 3 4 4 3 2 2 2 2 2 2 1
7 7 6 5 4 4 2 2 2 4 6 6 6 8 8 7 6 6 5 5 6 6 5 5 5 6 5 4 4 3 2 3 3 3 4 3 2 2 2 2 2 2 2 1 2 2 2 1 1
8 9 8 4 1 2 4 4 5 7 5 2 3 6 7 6 6 6 6 5 5 6 6 5 5 5 5 4 3 3 2 2 2 2 2 2 1 1 1 2 2 1 1 1 1 1 1 2 1
13 10 8 4 3 4 6 7 6 7 5 2 1 4 6 6 6 5 5 5 5 6 6 5 5 5 5 3 3 3 2 3 3 1 1 2 2 1 1 1 1 1 0 1 1 1 1 1 1
7 8 8 7 6 6 7 9 8 8 5 5 6 6 7 7 7 6 5 5 5 6 6 6 6 6 6 4 3 3 3 2 2 2 2 2 2 2 1 1 1 1 0 0 0 1 1 1 1
6 7 9 9 9 6 5 10 12 10 7 8 8 8 8 8 7 6 6 5 5 5 6 6 6 6 6 5 4 3 3 3 2 2 2 2 2 2 2 1 1 1 1 1 1 1 1 1 1
7 8 9 9 10 7 6 10 8 8 8 8 8 7 7 8 8 6 6 5 4 5 5 6 5 6 6 5 4 3 3 3 3 2 2 2 2 2 2 1 1 1 1 1 0 1 1 1 1
8 9 11 8 10 8 9 8 5 6 7 8 8 8 7 7 6 5 5 5 5 5 5 5 6 6 6 5 4 3 3 3 3 2 2 2 2 2 2 1 1 1 1 1 1 1 1 1 2
9 9 10 9 8 9 10 9 7 6 8 8 8 7 7 7 7 6 6 5 5 5 5 5 6 6 6 5 4 3 3 2 2 2 2 3 3 3 2 2 1 1 1 1 1 1 1 1 1
7 8 9 5 4 6 9 11 10 8 8 8 8 7 7 6 6 6 6 5 5 5 6 6 6 6 5 4 4 4 3 3 2 2 3 3 3 3 3 2 1 1 1 1 1 1 1 1 1
11 10 8 3 3 4 7 12 11 10 10 8 7 7 7 6 5 6 6 5 5 5 5 6 6 6 5 5 4 3 3 3 3 2 2 3 3 3 3 2 2 1 1 1 0 1 0 1 1
12 10 8 5 3 5 6 10 12 9 9 8 7 7 6 7 7 6 6 6 5 5 5 5 5 5 5 6 4 4 3 2 2 2 2 2 3 3 3 3 2 2 2 1 1 1 1 0 1
11 8 7 5 3 4 5 6 6 8 9 9 9 7 6 5 5 5 5 5 5 5 5 5 5 5 6 6 6 6 5 4 3 3 2 2 3 3 3 3 2 2 1 1 1 0 0 1 1
5 3 5 6 5 5 6 6 8 7 9 10 8 7 6 5 5 6 5 5 4 5 5 5 5 5 5 6 6 6 4 4 3 3 3 3 2 2 2 3 2 2 1 1 1 0 0 1 1
3 2 1 2 2 7 9 9 8 6 9 9 8 7 6 6 6 6 5 5 4 4 5 5 5 5 5 6 6 6 6 5 5 4 4 3 2 2 2 2 2 2 1 1 1 1 1 1 1
6 5 3 4 5 8 7 8 8 4 5 7 8 7 6 6 6 6 6 5 5 5 5 5 6 5 5 5 5 6 6 6 6 5 4 4 3 2 2 2 2 2 1 1 1 1 1 1 1
9 9 6 6 6 4 6 8 5 2 4 5 6 6 5 5 5 6 6 5 6 6 6 6 6 5 5 5 5 5 5 4 4 4 4 3 3 3 3 3 3 2 2 1 1 0 1 1 1
8 9 5 3 3 3 6 4 2 2 4 4 5 5 4 4 5 5 5 5 6 6 6 7 6 5 5 5 4 4 4 4 4 4 3 2 2 3 3 3 3 2 2 1 1 1 1 1 1
5 4 3 4 5 5 6 7 6 7 5 4 5 5 4 3 4 5 4 4 4 5 5 6 6 5 5 4 4 4 3 4 4 4 3 3 3 3 3 3 2 2 1 1 1 1 1 1 2
7 6 5 5 5 4 4 3 1 5 6 6 4 4 4 3 4 4 4 4 4 4 4 5 5 5 5 4 4 4 3 3 4 3 3 3 3 3 3 2 2 2 1 1 1 1 1 2 3
7 7 7 5 6 4 3 3 3 3 3 4 3 4 4 3 5 5 4 4 4 4 4 4 4 5 4 4 4 4 4 4 4 4 3 3 3 3 2 2 2 1 0 0 1 1 2 2 3
Wind_Direction
267 252 240 237 232 231 240 243 251 83 62 40 28 20 29 32 45 111 141 110 115 121 126 129 124 124 122 118 114 109 109 107 107 106 103 99 96 94 93 91 91 91 87 84 82 80 77 75 75
270 246 234 233 237 231 232 223 232 115 83 59 32 8 50 74 82 106 116 116 121 122 127 130 125 125 123 120 116 113 111 107 105 105 103 100 97 95 93 92 91 90 89 83 79 76 76 76 76
264 248 228 227 232 234 241 163 137 98 94 113 119 21 36 77 95 105 118 128 120 117 121 125 126 125 123 122 120 116 112 109 107 106 105 102 101 99 94 91 90 87 86 85 80 75 73 81 79
240 224 242 241 243 244 263 74 88 113 132 161 149 104 78 53 77 108 129 132 122 121 121 127 127 126 125 124 122 119 114 112 110 109 107 105 102 102 98 92 89 86 86 86 85 81 77 81 81
238 229 228 238 245 248 262 80 106 155 164 176 173 126 95 78 93 114 135 131 124 122 122 131 128 128 127 125 123 122 121 119 117 115 115 112 108 102 97 96 92 88 85 88 85 79 80 82 80
224 234 231 233 235 229 225 163 187 210 195 179 160 149 113 123 116 127 131 124 118 118 123 131 130 128 126 125 124 125 125 126 125 122 119 116 113 106 101 101 100 98 93 89 87 76 76 73 69
236 244 249 252 243 221 199 164 200 216 200 189 160 144 127 128 127 136 130 120 117 121 127 135 139 135 131 128 126 125 125 125 128 128 122 115 112 113 111 107 106 105 103 99 91 78 66 58 41
255 265 251 252 252 237 166 158 189 271 232 127 93 155 136 139 138 133 123 113 115 123 132 140 146 148 146 141 136 132 129 129 129 127 126 121 118 122 122 123 117 112 109 108 103 89 56 15 315
259 247 245 244 249 238 132 161 176 334 305 27 35 56 112 129 135 134 129 123 125 130 135 143 145 147 149 150 147 144 140 142 140 139 145 143 156 159 155 157 138 134 134 139 147 178 265 274 272
219 236 241 276 315 326 131 179 173 211 209 204 153 107 121 140 150 157 160 158 153 158 156 149 147 146 144 146 146 157 158 157 167 164 161 174 172 163 151 149 150 158 171 196 215 239 242 243 240
212 238 253 272 322 339 310 248 207 233 229 209 179 156 150 161 170 176 179 173 164 157 150 147 146 145 144 143 149 154 157 157 177 170 161 159 160 139 130 137 155 175 188 207 230 235 243 248 234
231 242 256 264 321 307 281 264 246 243 254 252 162 149 156 175 188 191 189 183 158 147 149 148 142 142 146 145 151 153 151 151 159 161 158 147 139 130 137 141 153 163 178 186 211 233 255 266 261
232 242 246 258 256 250 269 263 260 252 263 284 199 177 184 195 201 204 196 179 159 158 157 157 152 149 146 143 150 151 148 147 148 138 135 122 124 130 128 129 130 134 131 155 225 239 267 284 290
237 246 249 240 238 239 247 254 247 244 226 221 211 210 205 206 205 201 192 183 172 166 164 163 163 158 152 155 159 158 147 137 133 130 130 113 118 117 100 91 89 94 84 65 254 270 270 284 316
250 250 248 234 224 221 241 252 235 232 213 217 216 214 208 208 207 201 188 185 179 169 161 162 167 161 159 160 166 157 148 142 139 142 147 140 120 116 110 110 106 106 81 29 357 342 338 344 332
230 235 235 217 207 198 205 250 229 204 200 214 218 217 208 207 205 197 183 181 172 162 160 161 165 163 160 158 159 151 147 144 146 145 145 137 122 117 112 108 104 90 73 47 19 9 348 342 329
212 223 225 214 198 191 205 250 227 190 199 215 217 216 209 202 199 192 180 175 170 161 158 160 164 166 158 156 153 148 146 144 143 135 137 138 134 125 119 119 113 87 85 51 15 19 359 340 327
205 217 225 214 192 200 217 244 243 211 211 220 221 214 204 197 195 185 180 170 166 162 158 160 162 162 155 154 148 141 137 142 135 138 141 136 133 130 124 124 119 98 97 72 46 13 359 351 323
251 240 240 225 182 208 234 247 248 232 224 225 219 212 202 197 184 172 168 160 158 163 164 162 162 165 158 156 159 159 161 156 142 138 141 141 138 135 131 131 130 119 119 121 84 48 353 343 351
247 253 250 226 183 226 254 258 252 237 226 221 219 211 200 195 180 168 163 162 168 168 162 158 158 161 159 159 161 158 151 150 144 135 133 137 136 137 138 138 147 145 125 108 90 75 38 331 8
233 239 246 240 213 234 266 269 241 228 218 215 219 212 198 189 183 174 171 170 167 169 166 159 159 158 158 152 140 133 118 113 117 145 158 149 139 143 147 152 152 152 146 162 193 152 127 283 315
233 230 245 251 230 241 206 271 244 209 207 207 209 200 193 189 176 168 168 167 167 167 157 155 156 154 154 152 154 158 163 168 178 169 160 145 133 136 146 147 148 149 147 149 189 159 164 151 262
222 224 235 240 241 266 228 248 267 203 202 200 194 186 182 179 176 170 168 166 162 153 149 151 148 148 151 157 162 164 165 165 155 148 148 151 147 145 144 143 142 138 141 145 142 112 201 195 211
180 162 257 258 236 247 221 220 262 212 200 187 179 176 175 174 171 165 158 154 150 142 144 149 151 154 155 159 162 164 165 162 158 162 163 164 160 155 154 148 144 138 141 161 184 198 209 230 244
179 156 167 192 211 237 205 215 242 228 177 167 166 164 165 166 165 163 159 158 156 154 156 157 156 160 161 161 165 166 166 165 168 170 168 164 163 162 170 152 146 147 150 167 188 198 234 244 241
196 192 191 194 207 223 198 222 239 177 128 126 136 145 152 155 161 163 161 161 160 162 161 159 159 162 164 164 166 161 161 163 166 166 163 164 163 168 167 159 151 162 161 163 162 183 235 260 248
189 216 244 286 277 251 225 221 209 138 120 123 131 137 152 159 157 153 152 155 160 163 163 160 159 158 158 156 153 151 153 153 156 152 146 147 152 157 155 153 150 150 145 152 167 208 244 268 261
217 195 190 208 217 232 233 219 206 171 165 153 146 149 155 152 148 145 145 147 150 153 151 149 149 150 147 145 151 146 148 148 142 134 140 145 143 139 138 138 148 146 144 167 179 216 232 253 270
197 207 202 205 231 218 233 238 17 151 155 157 156 143 141 150 147 143 141 135 134 129 129 139 143 140 138 140 142 136 133 125 119 125 132 132 124 121 129 136 132 127 146 189 202 243 255 258 272
216 209 199 203 223 229 262 275 5 84 103 127 127 124 129 140 138 133 131 125 125 125 126 128 132 133 136 134 127 125 123 124 124 119 119 115 115 113 121 126 109 95 63 273 241 257 271 263 269